Location: Albany
(35.0170°S, 117.8920°E)
Time: 02:07:30
(UTC+08:00)

Explorer 7 - Pass Details

Date: 25 January 2021
Orbit: 484 x 677 km, 50.3° (Epoch: 01 March)

Event Time Altitude Azimuth Distance (km) Brightness Sun altitude
Rises 16:29:28 0° 286° (WNW) 3,033 11.6 33.2°
Reaches altitude 10° 16:32:01 10° 277° (W) 2,116 11.3 32.7°
Maximum altitude 16:36:31 35° 211° (SSW) 1,084 9.1 31.7°
Drops below altitude 10° 16:40:55 10° 145° (SE) 2,067 9.5 30.8°
Sets 16:43:24 0° 135° (SE) 2,952 10.2 30.3°
